Simultaneous Nadir Overpasses (SNOs) Predictions

Prediction of SNOs between NOAA-19 and NPP Satellite Orbit:

Table of predicted SNOs for the next 14.0 days since TLE Epoch: 8/9/2015
Index Date (NOAA-19) Time (NOAA-19) Lat,Lon (NOAA-19) SZA (NOAA-19 ) Date (NPP) Time (NPP) Lat,Lon (NPP) SZA (NPP ) Distance(km) Time Diff (sec)
1 08/19/2015 01:47:46 -81.04, -80.06 108.09 08/19/2015 01:48:48 -81.05, -80.13 108.11 1.48 62
2 08/19/2015 02:38:41 81.04, 87.44 71.90 08/19/2015 02:39:32 81.04, 87.49 71.86 0.92 51
3 08/19/2015 03:29:48 -81.04,-105.36 108.09 08/19/2015 03:30:17 -81.04,-105.20 108.13 2.79 29
4 08/19/2015 04:20:43 81.04, 62.14 71.89 08/19/2015 04:21:02 81.04, 62.05 71.90 1.57 19
5 08/19/2015 05:11:50 -81.04,-130.66 108.10 08/19/2015 05:11:47 -81.04,-130.64 108.10 0.40 3
6 08/19/2015
